Weather History for Lincoln, NE

Change the Weather History Date:

Saturday, July 13, 2013

  Actual Average Record
Temperature  
Mean Temperature 86 °F 78 °F  
Max Temperature 96 °F 89 °F 108 °F (1954)
Min Temperature 76 °F 66 °F 50 °F (1950)
Degree Days  
Heating Degree Days 0 0  
Month to date heating degree days 0 0  
Since 1 June heating degree days 20 16  
Since 1 July heating degree days 0 0  
Cooling Degree Days 21 13  
Month to date cooling degree days 164 162  
Year to date cooling degree days 482 483  
Since 1 June cooling degree days 395 404  
Growing Degree Days 36 (Base 50)    
Moisture  
Dew Point 68 °F    
Average Humidity 54    
Maximum Humidity 69    
Minimum Humidity 39    
Precipitation  
Precipitation T in 0.11 in 1.26 in (1970)
Month to date precipitation T 1.52  
Year to date precipitation 18.34 16.21  
Snow  
Snow 0.00 in 0.00 in - ()
Month to date snowfall 0.0 0.0  
Since 1 July snowfall 0.0 0.0  
Snow Depth 0.00 in    
Sea Level Pressure  
Sea Level Pressure 29.91 in    
Wind  
Wind Speed 15 mph (SSE)    
Max Wind Speed 25 mph    
Max Gust Speed 31 mph    
Visibility 10 miles    
Events      
T = Trace of Precipitation, MM = Missing Value Source: NWS Daily Summary

Daily Weather History Graph

Daily Weather History Graph

Search for Another Location

Airport:

Trip Planner

Search our weather history database for the weather conditions in past years. The results will help you decide how hot, cold, wet, or windy it might be!

Date:

Astronomy

Jul. 13, 2013 Rise Set
Actual Time 6:06 AM CDT 8:58 PM CDT
Civil Twilight 5:34 AM CDT 9:30 PM CDT
Nautical Twilight 4:53 AM CDT 10:11 PM CDT
Astronomical Twilight 4:05 AM CDT 10:59 PM CDT
Moon 11:26 AM CDT (7/13) 11:36 PM CDT (7/13)
Length of Visible Light 15h 56m
Length of Day
14h 51m
Waxing Crescent, 26% of the Moon is Illuminated
Jul 13
Waxing Crescent
Jul 15
First Quarter
Jul 22
Full
Jul 29
Last Quarter
Aug 6
New

Hourly Weather History & Observations

Time (CDT) Temp. Heat Index Dew Point Humidity Pressure Visibility Wind Dir Wind Speed Gust Speed Precip Events Conditions
12:54 AM 79.0 °F - 66.9 °F 66% 29.90 in 10.0 mi SSE 15.0 mph - N/A   Partly Cloudy
1:54 AM 79.0 °F - 66.9 °F 66% 29.92 in 10.0 mi SSE 8.1 mph - N/A   Clear
2:54 AM 79.0 °F - 66.9 °F 66% 29.91 in 10.0 mi SSE 11.5 mph - N/A   Clear
3:54 AM 78.1 °F - 66.9 °F 68% 29.91 in 10.0 mi SSE 12.7 mph - N/A   Clear
4:54 AM 77.0 °F - 66.9 °F 71% 29.91 in 10.0 mi SSE 12.7 mph - N/A   Mostly Cloudy
5:54 AM 77.0 °F - 66.0 °F 69% 29.92 in 10.0 mi SSE 11.5 mph - 0.00 in   Scattered Clouds
6:54 AM 77.0 °F - 66.0 °F 69% 29.93 in 9.0 mi SE 11.5 mph - N/A   Mostly Cloudy
7:54 AM 78.1 °F - 66.0 °F 66% 29.93 in 9.0 mi SSE 12.7 mph - N/A   Mostly Cloudy
8:54 AM 78.1 °F - 66.0 °F 66% 29.92 in 9.0 mi SSE 13.8 mph - N/A   Partly Cloudy
9:54 AM 79.0 °F - 66.0 °F 64% 29.94 in 10.0 mi South 15.0 mph - N/A   Scattered Clouds
10:54 AM 80.1 °F 82.3 °F 66.9 °F 64% 29.93 in 9.0 mi South 12.7 mph - N/A   Mostly Cloudy
11:54 AM 86.0 °F 90.7 °F 70.0 °F 59% 29.92 in 10.0 mi South 9.2 mph - N/A   Scattered Clouds
12:54 PM 90.0 °F 93.6 °F 68.0 °F 48% 29.90 in 10.0 mi South 20.7 mph - N/A   Clear
1:54 PM 93.9 °F 98.6 °F 68.0 °F 43% 29.89 in 10.0 mi South 15.0 mph 24.2 mph N/A   Clear
2:54 PM 95.0 °F 99.0 °F 66.9 °F 40% 29.88 in 10.0 mi South 21.9 mph 28.8 mph N/A   Clear
3:54 PM 91.0 °F 96.6 °F 70.0 °F 50% 29.88 in 10.0 mi SE 19.6 mph 23.0 mph N/A   Clear
4:54 PM 91.9 °F 96.9 °F 69.1 °F 47% 29.89 in 10.0 mi SSE 15.0 mph 25.3 mph N/A   Clear
5:54 PM 91.0 °F 95.6 °F 69.1 °F 48% 29.87 in 10.0 mi SSE 19.6 mph - N/A   Clear
6:54 PM 87.1 °F 92.0 °F 70.0 °F 57% 29.87 in 9.0 mi SE 13.8 mph - N/A   Clear
7:54 PM 84.9 °F 89.4 °F 70.0 °F 61% 29.88 in 9.0 mi SE 15.0 mph - N/A   Clear
8:54 PM 82.9 °F 87.5 °F 71.1 °F 67% 29.89 in 8.0 mi SE 16.1 mph 21.9 mph N/A   Clear
9:54 PM 82.0 °F 86.3 °F 71.1 °F 69% 29.91 in 9.0 mi SE 15.0 mph 20.7 mph N/A   Clear
10:54 PM 80.1 °F 82.7 °F 68.0 °F 67% 29.92 in 10.0 mi SE 17.3 mph 25.3 mph N/A   Clear
11:54 PM 79.0 °F - 66.9 °F 66% 29.93 in 10.0 mi SE 17.3 mph 28.8 mph N/A   Clear